Weather History for KAND - October, 2013

Change the Weather History Date:

Friday, October 4, 2013

  Actual Average Record
Temperature  
Mean Temperature 70 °F -  
Max Temperature 84 °F 77 °F 97 °F (1954)
Min Temperature 57 °F 53 °F 33 °F (1987)
Cooling Degree Days 6    
Growing Degree Days 20 (Base 50)    
Moisture  
Dew Point 61 °F    
Average Humidity 82    
Maximum Humidity 100    
Minimum Humidity 42    
Precipitation  
Precipitation 0.00 in - - ()
Sea Level Pressure  
Sea Level Pressure 30.13 in    
Wind  
Wind Speed 1 mph (WSW)    
Max Wind Speed 6 mph    
Max Gust Speed -    
Visibility 8 miles    
Events Fog    
Averages and records for this station are not official NWS values.
T = Trace of Precipitation, MM = Missing Value Source: NWS Daily Summary

Daily Weather History Graph

Daily Weather History Graph

Search for Another Location

Airport or City:

Trip Planner

Search our weather history database for the weather conditions in past years. The results will help you decide how hot, cold, wet, or windy it might be!

Date:

Astronomy

Oct. 04, 2013 Rise Set
Actual Time 7:27 AM EDT 7:10 PM EDT
Civil Twilight 7:02 AM EDT 7:35 PM EDT
Nautical Twilight 6:33 AM EDT 8:04 PM EDT
Astronomical Twilight 6:04 AM EDT 8:33 PM EDT
Moon 7:01 AM EDT 6:53 PM EDT
Length of Visible Light 12h 32m
Length of Day
11h 42m
Waning Crescent, 0% of the Moon is Illuminated
Oct 4
Waning Crescent
Oct 4
New
Oct 11
First Quarter
Oct 18
Full
Oct 26
Last Quarter

Hourly Weather History & Observations

Time (EDT) Temp. Heat Index Dew Point Humidity Pressure Visibility Wind Dir Wind Speed Gust Speed Precip Events Conditions
12:56 AM 64.0 °F - 62.1 °F 93% 30.11 in 10.0 mi NNW 3.5 mph - N/A   Clear
1:56 AM 63.0 °F - 62.1 °F 97% 30.11 in 10.0 mi Calm Calm - N/A   Clear
2:56 AM 60.1 °F - 59.0 °F 96% 30.11 in 6.0 mi Calm Calm - N/A   Clear
3:56 AM 60.1 °F - 59.0 °F 96% 30.10 in 8.0 mi Calm Calm - N/A   Clear
4:56 AM 60.1 °F - 60.1 °F 100% 30.10 in 7.0 mi Calm Calm - N/A   Clear
5:56 AM 60.1 °F - 59.0 °F 96% 30.11 in 6.0 mi Calm Calm - N/A   Clear
6:56 AM 60.1 °F - 59.0 °F 96% 30.12 in 7.0 mi Calm Calm - N/A   Clear
7:38 AM 57.2 °F - 57.2 °F 100% 30.15 in 9.0 mi South 3.5 mph - N/A   Partly Cloudy
7:56 AM 59.0 °F - 57.9 °F 96% 30.14 in 10.0 mi Calm Calm - N/A   Mostly Cloudy
8:19 AM 60.8 °F - 60.8 °F 100% 30.16 in 2.0 mi Calm Calm - N/A   Overcast
8:27 AM 60.8 °F - 60.8 °F 100% 30.16 in 0.8 mi Calm Calm - N/A   Mist
8:30 AM 60.8 °F - 60.8 °F 100% 30.17 in 0.2 mi Calm Calm - N/A Fog Fog
8:56 AM 63.0 °F - 63.0 °F 100% 30.16 in 0.2 mi Calm Calm - N/A Fog Fog
9:03 AM 64.4 °F - 64.4 °F 100% 30.18 in 0.8 mi Calm Calm - N/A   Mist
9:06 AM 64.4 °F - 64.4 °F 100% 30.18 in 2.5 mi Calm Calm - N/A   Mostly Cloudy
9:10 AM 64.4 °F - 64.4 °F 100% 30.18 in 8.0 mi Calm Calm - N/A   Scattered Clouds
9:56 AM 66.9 °F - 66.0 °F 97% 30.17 in 10.0 mi Calm Calm - N/A   Partly Cloudy
10:56 AM 75.0 °F - 64.9 °F 71% 30.17 in 10.0 mi SW 3.5 mph - N/A   Clear
11:56 AM 79.0 °F - 63.0 °F 58% 30.15 in 10.0 mi Variable 3.5 mph - N/A   Clear
12:56 PM 81.0 °F 81.6 °F 60.1 °F 49% 30.14 in 10.0 mi West 5.8 mph - N/A   Clear
1:56 PM 82.9 °F 82.8 °F 59.0 °F 44% 30.12 in 10.0 mi Calm Calm - N/A   Clear
2:56 PM 82.9 °F 82.6 °F 57.9 °F 42% 30.10 in 10.0 mi SW 4.6 mph - N/A   Clear
3:56 PM 84.0 °F 84.0 °F 60.1 °F 44% 30.09 in 10.0 mi Calm Calm - N/A   Clear
4:56 PM 84.0 °F 83.8 °F 59.0 °F 43% 30.08 in 10.0 mi SW 3.5 mph - N/A   Clear
5:56 PM 82.0 °F 82.0 °F 57.9 °F 44% 30.08 in 10.0 mi SW 4.6 mph - N/A   Clear
6:56 PM 78.1 °F - 61.0 °F 56% 30.09 in 10.0 mi Calm Calm - N/A   Clear
7:56 PM 72.0 °F - 64.9 °F 78% 30.10 in 10.0 mi Calm Calm - N/A   Clear
8:56 PM 69.1 °F - 63.0 °F 81% 30.12 in 10.0 mi Calm Calm - N/A   Clear
9:56 PM 66.9 °F - 64.0 °F 90% 30.13 in 10.0 mi Calm Calm - N/A   Clear
10:56 PM 66.0 °F - 63.0 °F 90% 30.12 in 10.0 mi Calm Calm - N/A   Clear
11:56 PM 64.0 °F - 62.1 °F 93% 30.12 in 10.0 mi Calm Calm - N/A   Clear